Weather Roundup
Issued by NWS

Home | Current Version | Previous Version | Graphics & Text | Print | Product List | Glossary Off
Versions: 1 2 3 4 5 6 7 8 9 10 11 12 13 14 15 16 17 18 19 20 21 22 23 24 25 26 27 28 29 30 31 32 33 34 35 36 37 38 39 40 41 42 43 44 45 46 47 48 49 50

000
NZUS93 KARX 270759
HRRWXR

CURRENT HOURLY OBSERVATIONS ACROSS
MUCH OF THE UPPER MISSISSIPPI VALLEY
NATIONAL WEATHER SERVICE LA CROSSE WI
200 AM CST TUE JAN 27 2015


...SOUTHEAST MINNESOTA...


CITY           SKY/WX    TMP DP  RH WIND       PRES   REMARKS
ROCHESTER      CLOUDY    34  30  85 NW10      29.99R WCI  26
ROCHESTER/MAYO CLOUDY    35  30  83 NW6       29.99R WCI  29
WINONA         CLOUDY    34  30  86 NW5       30.02R WCI  30
AUSTIN         CLOUDY    34  30  86 NW8       30.00R WCI  27
ALBERT LEA     CLOUDY    34  30  86 NW3       30.01R
DODGE CENTER   CLOUDY    34  30  86 N7        29.99R WCI  28
PRESTON        CLOUDY    34  28  80 N9        29.98R WCI  26
OWATONNA       CLOUDY    34  30  86 NW5       30.01R WCI  30
FARIBAULT      CLOUDY    34  30  86 NW5       30.02R WCI  30
$$

...ELSEWHERE IN MINNESOTA...


CITY           SKY/WX    TMP DP  RH WIND       PRES   REMARKS
MINNEAPOLIS    CLOUDY    34  26  72 N9        30.03R WCI  27
INTNL FALLS    CLOUDY    24  20  84 NW5       30.02R WCI  18
DULUTH         CLOUDY    27  21  78 N6        30.01R WCI  20
RED WING       CLOUDY    36  27  69 N7        30.02R WCI  30
REDWOOD FALLS  CLOUDY    32  28  85 N3        30.05R
MANKATO        PTCLDY    32  27  80 NW6       30.03R WCI  26
WORTHINGTON    CLOUDY    32  30  93 N8        30.05R WCI  25
FAIRMONT       CLEAR     30  27  86 NW8       30.03R WCI  23
$$

...SOUTHWEST WISCONSIN...


CITY           SKY/WX    TMP DP  RH WIND       PRES   REMARKS
LA CROSSE      CLOUDY    31  26  82 N5        30.01R WCI  26
PRAIRIE DU CHI CLOUDY    30  28  90 CALM      29.98R FOG
BOSCOBEL       CLOUDY    28  25  88 CALM      29.98R FOG
LONE ROCK      CLOUDY    25  23  93 W6        29.98R FOG     WCI  18
PLATTEVILLE    CLOUDY    27  26  96 NW5       29.94R WCI  22
FORT MC COY    CLOUDY    27  27  99 N3        30.00R FOG
CAMP DOUGLAS   CLOUDY    23  23 100 NW5       29.99R WCI  17
VIROQUA        CLOUDY    29  29 100 N10       29.95R WCI  20
WIS DELLS      NOT AVBL
$$

...ELSEWHERE IN WISCONSIN...


CITY           SKY/WX    TMP DP  RH WIND       PRES   REMARKS
MILWAUKEE      CLOUDY    27  22  81 N3        29.96R
MADISON        CLOUDY    24  22  91 N5        29.96R FOG     WCI  18
GREEN BAY      CLOUDY    24  20  84 E7        30.01R WCI  16
EAU CLAIRE     NOT AVBL
BLACK RVR FLS  CLOUDY    26  26 100 CALM      30.00R
MEDFORD        CLOUDY    20  19  95 N3        29.96R FOG
WAUSAU         CLOUDY    22  19  89 N3        29.97R
WIS RAPIDS     CLOUDY    23  19  85 N5        30.00R WCI  17
MARSHFIELD     CLOUDY    23  20  88 N6        29.98R FOG     WCI  16
RICE LAKE      CLOUDY    29  25  83 N9        30.02R WCI  21
$$

...NORTHEAST IOWA...


CITY           SKY/WX    TMP DP  RH WIND       PRES   REMARKS
DECORAH        CLOUDY    36  32  87 NE6       29.96R WCI  31
MASON CITY     CLEAR     31  28  89 NW8       30.02R WCI  23
CHARLES CITY   CLOUDY    34  34 100 N12       29.99R WCI  25
OELWEIN        CLOUDY    34  32  93 NW10      29.98R WCI  26
$$

...ELSEWHERE IN IOWA...


CITY           SKY/WX    TMP DP  RH WIND       PRES   REMARKS
DES MOINES     CLOUDY    37  31  78 NW8       30.04R WCI  31
IOWA CITY      PTCLDY    34  31  88 NW9       30.00R WCI  27
FORT DODGE     CLEAR     34  28  80 W3        30.05R
$$

...NORTHERN ILLINOIS...


CITY           SKY/WX    TMP DP  RH WIND       PRES   REMARKS
CHICAGO-OHARE  CLOUDY    27  24  89 NE3       29.94R
CHICAGO-MIDWAY LGT SNOW  29  25  85 E5        29.94R FOG     WCI  24
MOLINE         CLOUDY    36  31  82 NW8       29.95R WCI  30
ROCKFORD       CLOUDY    26  24  92 N5        29.96R FOG     WCI  20
PEORIA         CLOUDY    34  30  85 N6        29.94R WCI  29
$$

NOTE: "FAIR" INDICATES FEW OR NO CLOUDS BELOW 12,000 FEET WITH NO
SIGNIFICANT WEATHER AND/OR OBSTRUCTIONS TO VISIBILITY. WIND
SPEEDS ARE IN MILES-PER-HOUR.



USA.gov is the U.S. government's official web portal to all federal, state and local government web resources and services.